Year,Month,Day,Hour,Minute,Value (Times are PST for temperature in C)
2008,08,18,00,00,19.30
2008,08,18,00,01,19.30
2008,08,18,00,02,19.30
2008,08,18,00,03,19.30
2008,08,18,00,04,19.30
2008,08,18,00,05,19.30
2008,08,18,00,06,19.30
2008,08,18,00,07,19.30
2008,08,18,00,08,19.30
2008,08,18,00,09,19.30
2008,08,18,00,10,19.30
2008,08,18,00,11,19.30
2008,08,18,00,12,19.30
2008,08,18,00,13,19.30
2008,08,18,00,14,19.30
2008,08,18,00,15,19.30
2008,08,18,00,16,19.30
2008,08,18,00,17,19.30
2008,08,18,00,18,19.30
2008,08,18,00,19,19.30
2008,08,18,00,20,19.20
2008,08,18,00,21,19.20
2008,08,18,00,22,19.20
2008,08,18,00,23,19.20
2008,08,18,00,24,19.20
2008,08,18,00,25,19.20
2008,08,18,00,26,19.20
2008,08,18,00,27,19.20
2008,08,18,00,28,19.20
2008,08,18,00,29,19.20
2008,08,18,00,30,19.20
2008,08,18,00,31,19.20
2008,08,18,00,32,19.20
2008,08,18,00,33,19.20
2008,08,18,00,34,19.20
2008,08,18,00,35,19.20
2008,08,18,00,36,19.20
2008,08,18,00,37,19.10
2008,08,18,00,38,19.10
2008,08,18,00,39,19.10
2008,08,18,00,40,19.10
2008,08,18,00,41,19.00
2008,08,18,00,42,19.00
2008,08,18,00,43,18.90
2008,08,18,00,44,18.90
2008,08,18,00,45,18.90
2008,08,18,00,46,18.90
2008,08,18,00,47,18.90
2008,08,18,00,48,18.80
2008,08,18,00,49,18.80
2008,08,18,00,50,18.80
2008,08,18,00,51,18.80
2008,08,18,00,52,18.80
2008,08,18,00,53,18.70
2008,08,18,00,54,18.70
2008,08,18,00,55,18.60
2008,08,18,00,56,18.60
2008,08,18,00,57,18.60
2008,08,18,00,58,18.50
2008,08,18,00,59,18.50
2008,08,18,01,00,18.50
2008,08,18,01,01,18.50
2008,08,18,01,02,18.40
2008,08,18,01,03,18.40
2008,08,18,01,04,18.40
2008,08,18,01,05,18.40
2008,08,18,01,06,18.40
2008,08,18,01,07,18.30
2008,08,18,01,08,18.30
2008,08,18,01,09,18.30
2008,08,18,01,10,18.30
2008,08,18,01,11,18.30
2008,08,18,01,12,18.30
2008,08,18,01,13,18.30
2008,08,18,01,14,18.30
2008,08,18,01,15,18.30
2008,08,18,01,16,18.30
2008,08,18,01,17,18.20
2008,08,18,01,18,18.20
2008,08,18,01,19,18.20
2008,08,18,01,20,18.20
2008,08,18,01,21,18.20
2008,08,18,01,22,18.20
2008,08,18,01,23,18.20
2008,08,18,01,24,18.20
2008,08,18,01,25,18.20
2008,08,18,01,26,18.20
2008,08,18,01,27,18.20
2008,08,18,01,28,18.20
2008,08,18,01,29,18.20
2008,08,18,01,30,18.20
2008,08,18,01,31,18.10
2008,08,18,01,32,18.10
2008,08,18,01,33,18.10
2008,08,18,01,34,18.10
2008,08,18,01,35,18.10
2008,08,18,01,36,18.10
2008,08,18,01,37,18.10
2008,08,18,01,38,18.00
2008,08,18,01,39,18.00
2008,08,18,01,40,18.10
2008,08,18,01,41,18.10
2008,08,18,01,42,18.10
2008,08,18,01,43,18.10
2008,08,18,01,44,18.10
2008,08,18,01,45,18.10
2008,08,18,01,46,18.10
2008,08,18,01,47,18.10
2008,08,18,01,48,18.10
2008,08,18,01,49,18.10
2008,08,18,01,50,18.10
2008,08,18,01,51,18.10
2008,08,18,01,52,18.10
2008,08,18,01,53,18.10
2008,08,18,01,54,18.10
2008,08,18,01,55,18.00
2008,08,18,01,56,18.00
2008,08,18,01,57,18.00
2008,08,18,01,58,18.00
2008,08,18,01,59,18.00
2008,08,18,02,00,18.00
2008,08,18,02,01,17.90
2008,08,18,02,02,17.90
2008,08,18,02,03,17.90
2008,08,18,02,04,17.90
2008,08,18,02,05,17.90
2008,08,18,02,06,17.90
2008,08,18,02,07,17.90
2008,08,18,02,08,17.90
2008,08,18,02,09,17.80
2008,08,18,02,10,17.80
2008,08,18,02,11,17.80
2008,08,18,02,12,17.70
2008,08,18,02,13,17.70
2008,08,18,02,14,17.70
2008,08,18,02,15,17.70
2008,08,18,02,16,17.60
2008,08,18,02,17,17.60
2008,08,18,02,18,17.60
2008,08,18,02,19,17.60
2008,08,18,02,20,17.60
2008,08,18,02,21,17.60
2008,08,18,02,22,17.50
2008,08,18,02,23,17.50
2008,08,18,02,24,17.50
2008,08,18,02,25,17.50
2008,08,18,02,26,17.50
2008,08,18,02,27,17.40
2008,08,18,02,28,17.40
2008,08,18,02,29,17.40
2008,08,18,02,30,17.40
2008,08,18,02,31,17.40
2008,08,18,02,32,17.30
2008,08,18,02,33,17.30
2008,08,18,02,34,17.30
2008,08,18,02,35,17.30
2008,08,18,02,36,17.30
2008,08,18,02,37,17.30
2008,08,18,02,38,17.20
2008,08,18,02,39,17.20
2008,08,18,02,40,17.20
2008,08,18,02,41,17.20
2008,08,18,02,42,17.20
2008,08,18,02,43,17.20
2008,08,18,02,44,17.20
2008,08,18,02,45,17.20
2008,08,18,02,46,17.20
2008,08,18,02,47,17.20
2008,08,18,02,48,17.20
2008,08,18,02,49,17.20
2008,08,18,02,50,17.20
2008,08,18,02,51,17.20
2008,08,18,02,52,17.20
2008,08,18,02,53,17.20
2008,08,18,02,54,17.20
2008,08,18,02,55,17.20
2008,08,18,02,56,17.20
2008,08,18,02,57,17.20
2008,08,18,02,58,17.20
2008,08,18,02,59,17.20
2008,08,18,03,00,17.20
2008,08,18,03,01,17.20
2008,08,18,03,02,17.20
2008,08,18,03,03,17.20
2008,08,18,03,04,17.20
2008,08,18,03,05,17.20
2008,08,18,03,06,17.20
2008,08,18,03,07,17.20
2008,08,18,03,08,17.20
2008,08,18,03,09,17.20
2008,08,18,03,10,17.20
2008,08,18,03,11,17.20
2008,08,18,03,12,17.30
2008,08,18,03,13,17.30
2008,08,18,03,14,17.30
2008,08,18,03,15,17.30
2008,08,18,03,16,17.30
2008,08,18,03,17,17.30
2008,08,18,03,18,17.30
2008,08,18,03,19,17.40
2008,08,18,03,20,17.40
2008,08,18,03,21,17.40
2008,08,18,03,22,17.40
2008,08,18,03,23,17.40
2008,08,18,03,24,17.40
2008,08,18,03,25,17.40
2008,08,18,03,26,17.40
2008,08,18,03,27,17.40
2008,08,18,03,28,17.40
2008,08,18,03,29,17.50
2008,08,18,03,30,17.50
2008,08,18,03,31,17.50
2008,08,18,03,32,17.50
2008,08,18,03,33,17.50
2008,08,18,03,34,17.50
2008,08,18,03,35,17.50
2008,08,18,03,36,17.50
2008,08,18,03,37,17.50
2008,08,18,03,38,17.50
2008,08,18,03,39,17.50
2008,08,18,03,40,17.50
2008,08,18,03,41,17.60
2008,08,18,03,42,17.50
2008,08,18,03,43,17.60
2008,08,18,03,44,17.50
2008,08,18,03,45,17.50
2008,08,18,03,46,17.50
2008,08,18,03,47,17.50
2008,08,18,03,48,17.50
2008,08,18,03,49,17.50
2008,08,18,03,50,17.50
2008,08,18,03,51,17.50
2008,08,18,03,52,17.50
2008,08,18,03,53,17.40
2008,08,18,03,54,17.40
2008,08,18,03,55,17.40
2008,08,18,03,56,17.40
2008,08,18,03,57,17.40
2008,08,18,03,58,17.40
2008,08,18,03,59,17.40
2008,08,18,04,00,17.30
2008,08,18,04,01,17.30
2008,08,18,04,02,17.30
2008,08,18,04,03,17.30
2008,08,18,04,04,17.30
2008,08,18,04,05,17.30
2008,08,18,04,06,17.20
2008,08,18,04,07,17.20
2008,08,18,04,08,17.20
2008,08,18,04,09,17.20
2008,08,18,04,10,17.20
2008,08,18,04,11,17.10
2008,08,18,04,12,17.10
2008,08,18,04,13,17.10
2008,08,18,04,14,17.10
2008,08,18,04,15,17.00
2008,08,18,04,16,17.00
2008,08,18,04,17,16.90
2008,08,18,04,18,16.90
2008,08,18,04,19,16.80
2008,08,18,04,20,16.80
2008,08,18,04,21,16.70
2008,08,18,04,22,16.70
2008,08,18,04,23,16.70
2008,08,18,04,24,16.60
2008,08,18,04,25,16.60
2008,08,18,04,26,16.60
2008,08,18,04,27,16.60
2008,08,18,04,28,16.50
2008,08,18,04,29,16.50
2008,08,18,04,30,16.40
2008,08,18,04,31,16.40
2008,08,18,04,32,16.40
2008,08,18,04,33,16.40
2008,08,18,04,34,16.40
2008,08,18,04,35,16.40
2008,08,18,04,36,16.40
2008,08,18,04,37,16.40
2008,08,18,04,38,16.40
2008,08,18,04,39,16.40
2008,08,18,04,40,16.40
2008,08,18,04,41,16.40
2008,08,18,04,42,16.40
2008,08,18,04,43,16.30
2008,08,18,04,44,16.30
2008,08,18,04,45,16.30
2008,08,18,04,46,16.30
2008,08,18,04,47,16.30
2008,08,18,04,48,16.30
2008,08,18,04,49,16.30
2008,08,18,04,50,16.30
2008,08,18,04,51,16.30
2008,08,18,04,52,16.30
2008,08,18,04,53,16.30
2008,08,18,04,54,16.30
2008,08,18,04,55,16.30
2008,08,18,04,56,16.30
2008,08,18,04,57,16.30
2008,08,18,04,58,16.30
2008,08,18,04,59,16.30
2008,08,18,05,00,16.30
2008,08,18,05,01,16.30
2008,08,18,05,02,16.30
2008,08,18,05,03,16.30
2008,08,18,05,04,16.30
2008,08,18,05,05,16.30
2008,08,18,05,06,16.30
2008,08,18,05,07,16.30
2008,08,18,05,08,16.30
2008,08,18,05,09,16.30
2008,08,18,05,10,16.30
2008,08,18,05,11,16.30
2008,08,18,05,12,16.30
2008,08,18,05,13,16.30
2008,08,18,05,14,16.30
2008,08,18,05,15,16.30
2008,08,18,05,16,16.30
2008,08,18,05,17,16.30
2008,08,18,05,18,16.30
2008,08,18,05,19,16.30
2008,08,18,05,20,16.30
2008,08,18,05,21,16.30
2008,08,18,05,22,16.30
2008,08,18,05,23,16.30
2008,08,18,05,24,16.30
2008,08,18,05,25,16.30
2008,08,18,05,26,16.30
2008,08,18,05,27,16.30
2008,08,18,05,28,16.30
2008,08,18,05,29,16.30
2008,08,18,05,30,16.30
2008,08,18,05,31,16.30
2008,08,18,05,32,16.30
2008,08,18,05,33,16.30
2008,08,18,05,34,16.30
2008,08,18,05,35,16.30
2008,08,18,05,36,16.30
2008,08,18,05,37,16.40
2008,08,18,05,38,16.40
2008,08,18,05,39,16.40
2008,08,18,05,40,16.30
2008,08,18,05,41,16.30
2008,08,18,05,42,16.30
2008,08,18,05,43,16.30
2008,08,18,05,44,16.30
2008,08,18,05,45,16.30
2008,08,18,05,46,16.30
2008,08,18,05,47,16.30
2008,08,18,05,48,16.20
2008,08,18,05,49,16.20
2008,08,18,05,50,16.20
2008,08,18,05,51,16.20
2008,08,18,05,52,16.20
2008,08,18,05,53,16.20
2008,08,18,05,54,16.20
2008,08,18,05,55,16.20
2008,08,18,05,56,16.20
2008,08,18,05,57,16.20
2008,08,18,05,58,16.10
2008,08,18,05,59,16.10
2008,08,18,06,00,16.10
2008,08,18,06,01,16.10
2008,08,18,06,02,16.10
2008,08,18,06,03,16.10
2008,08,18,06,04,16.10
2008,08,18,06,05,16.10
2008,08,18,06,06,16.10
2008,08,18,06,07,16.00
2008,08,18,06,08,16.00
2008,08,18,06,09,16.00
2008,08,18,06,10,16.00
2008,08,18,06,11,16.00
2008,08,18,06,12,15.90
2008,08,18,06,13,15.90
2008,08,18,06,14,15.90
2008,08,18,06,15,15.90
2008,08,18,06,16,15.90
2008,08,18,06,17,15.90
2008,08,18,06,18,15.90
2008,08,18,06,19,15.80
2008,08,18,06,20,15.80
2008,08,18,06,21,15.80
2008,08,18,06,22,15.80
2008,08,18,06,23,15.80
2008,08,18,06,24,15.80
2008,08,18,06,25,15.80
2008,08,18,06,26,15.80
2008,08,18,06,27,15.70
2008,08,18,06,28,15.70
2008,08,18,06,29,15.70
2008,08,18,06,30,15.70
2008,08,18,06,31,15.70
2008,08,18,06,32,15.70
2008,08,18,06,33,15.70
2008,08,18,06,34,15.70
2008,08,18,06,35,15.60
2008,08,18,06,36,15.60
2008,08,18,06,37,15.60
2008,08,18,06,38,15.60
2008,08,18,06,39,15.60
2008,08,18,06,40,15.60
2008,08,18,06,41,15.60
2008,08,18,06,42,15.60
2008,08,18,06,43,15.60
2008,08,18,06,44,15.60
2008,08,18,06,45,15.50
2008,08,18,06,46,15.50
2008,08,18,06,47,15.50
2008,08,18,06,48,15.50
2008,08,18,06,49,15.50
2008,08,18,06,50,15.50
2008,08,18,06,51,15.40
2008,08,18,06,52,15.40
2008,08,18,06,53,15.40
2008,08,18,06,54,15.40
2008,08,18,06,55,15.40
2008,08,18,06,56,15.30
2008,08,18,06,57,15.30
2008,08,18,06,58,15.30
2008,08,18,06,59,15.30
2008,08,18,07,00,15.30
2008,08,18,07,01,15.30
2008,08,18,07,02,15.30
2008,08,18,07,03,15.20
2008,08,18,07,04,15.20
2008,08,18,07,05,15.20
2008,08,18,07,06,15.20
2008,08,18,07,07,15.20
2008,08,18,07,08,15.20
2008,08,18,07,09,15.20
2008,08,18,07,10,15.20
2008,08,18,07,11,15.20
2008,08,18,07,12,15.20
2008,08,18,07,13,15.20
2008,08,18,07,14,15.20
2008,08,18,07,15,15.20
2008,08,18,07,16,15.20
2008,08,18,07,17,15.20
2008,08,18,07,18,15.20
2008,08,18,07,19,15.20
2008,08,18,07,20,15.20
2008,08,18,07,21,15.20
2008,08,18,07,22,15.20
2008,08,18,07,23,15.20
2008,08,18,07,24,15.10
2008,08,18,07,25,15.10
2008,08,18,07,26,15.10
2008,08,18,07,27,15.00
2008,08,18,07,28,15.00
2008,08,18,07,29,15.00
2008,08,18,07,30,15.00
2008,08,18,07,31,15.00
2008,08,18,07,32,15.00
2008,08,18,07,33,15.00
2008,08,18,07,34,15.00
2008,08,18,07,35,15.00
2008,08,18,07,36,15.00
2008,08,18,07,37,15.00
2008,08,18,07,38,15.00
2008,08,18,07,39,15.00
2008,08,18,07,40,15.00
2008,08,18,07,41,15.10
2008,08,18,07,42,15.10
2008,08,18,07,43,15.10
2008,08,18,07,44,15.20
2008,08,18,07,45,15.20
2008,08,18,07,46,15.20
2008,08,18,07,47,15.20
2008,08,18,07,48,15.30
2008,08,18,07,49,15.30
2008,08,18,07,50,15.30
2008,08,18,07,51,15.40
2008,08,18,07,52,15.40
2008,08,18,07,53,15.40
2008,08,18,07,54,15.50
2008,08,18,07,55,15.50
2008,08,18,07,56,15.50
2008,08,18,07,57,15.60
2008,08,18,07,58,15.60
2008,08,18,07,59,15.60
2008,08,18,08,00,15.70
2008,08,18,08,01,15.70
2008,08,18,08,02,15.70
2008,08,18,08,03,15.80
2008,08,18,08,04,15.80
2008,08,18,08,05,15.80
2008,08,18,08,06,15.90
2008,08,18,08,07,15.90
2008,08,18,08,08,15.90
2008,08,18,08,09,15.90
2008,08,18,08,10,15.90
2008,08,18,08,11,15.90
2008,08,18,08,12,15.90
2008,08,18,08,13,15.90
2008,08,18,08,14,15.90
2008,08,18,08,15,16.00
2008,08,18,08,16,16.00
2008,08,18,08,17,15.90
2008,08,18,08,18,15.90
2008,08,18,08,19,15.90
2008,08,18,08,20,15.90
2008,08,18,08,21,15.90
2008,08,18,08,22,16.00
2008,08,18,08,23,16.00
2008,08,18,08,24,16.00
2008,08,18,08,25,16.00
2008,08,18,08,26,16.10
2008,08,18,08,27,16.10
2008,08,18,08,28,16.20
2008,08,18,08,29,16.20
2008,08,18,08,30,16.30
2008,08,18,08,31,16.30
2008,08,18,08,32,16.30
2008,08,18,08,33,16.40
2008,08,18,08,34,16.50
2008,08,18,08,35,16.60
2008,08,18,08,36,16.70
2008,08,18,08,37,16.80
2008,08,18,08,38,16.80
2008,08,18,08,39,16.90
2008,08,18,08,40,17.00
2008,08,18,08,41,17.20
2008,08,18,08,42,17.30
2008,08,18,08,43,17.40
2008,08,18,08,44,17.50
2008,08,18,08,45,17.60
2008,08,18,08,46,17.80
2008,08,18,08,47,17.90
2008,08,18,08,48,18.10
2008,08,18,08,49,18.20
2008,08,18,08,50,18.40
2008,08,18,08,51,18.50
2008,08,18,08,52,18.60
2008,08,18,08,53,18.70
2008,08,18,08,54,18.80
2008,08,18,08,55,18.80
2008,08,18,08,56,18.90
2008,08,18,08,57,19.00
2008,08,18,08,58,19.00
2008,08,18,08,59,19.10
2008,08,18,09,00,19.20
2008,08,18,09,01,19.20
2008,08,18,09,02,19.30
2008,08,18,09,03,19.40
2008,08,18,09,04,19.40
2008,08,18,09,05,19.50
2008,08,18,09,06,19.60
2008,08,18,09,07,19.70
2008,08,18,09,08,19.70
2008,08,18,09,09,19.80
2008,08,18,09,10,19.80
2008,08,18,09,11,19.90
2008,08,18,09,12,19.90
2008,08,18,09,13,19.90
2008,08,18,09,14,20.00
2008,08,18,09,15,20.00
2008,08,18,09,16,20.00
2008,08,18,09,17,20.00
2008,08,18,09,18,20.10
2008,08,18,09,19,20.10
2008,08,18,09,20,20.10
2008,08,18,09,21,20.20
2008,08,18,09,22,20.20
2008,08,18,09,23,20.30
2008,08,18,09,24,20.30
2008,08,18,09,25,20.40
2008,08,18,09,26,20.50
2008,08,18,09,27,20.60
2008,08,18,09,28,20.70
2008,08,18,09,29,20.70
2008,08,18,09,30,20.80
2008,08,18,09,31,20.90
2008,08,18,09,32,20.90
2008,08,18,09,33,21.00
2008,08,18,09,34,21.10
2008,08,18,09,35,21.10
2008,08,18,09,36,21.20
2008,08,18,09,37,21.20
2008,08,18,09,38,21.20
2008,08,18,09,39,21.30
2008,08,18,09,40,21.30
2008,08,18,09,41,21.40
2008,08,18,09,42,21.40
2008,08,18,09,43,21.50
2008,08,18,09,44,21.60
2008,08,18,09,45,21.70
2008,08,18,09,46,21.80
2008,08,18,09,47,21.80
2008,08,18,09,48,21.90
2008,08,18,09,49,21.90
2008,08,18,09,50,22.00
2008,08,18,09,51,22.00
2008,08,18,09,52,22.00
2008,08,18,09,53,22.10
2008,08,18,09,54,22.10
2008,08,18,09,55,22.10
2008,08,18,09,56,22.20
2008,08,18,09,57,22.20
2008,08,18,09,58,22.20
2008,08,18,09,59,22.30
2008,08,18,10,00,22.30
2008,08,18,10,01,22.40
2008,08,18,10,02,22.40
2008,08,18,10,03,22.50
2008,08,18,10,04,22.60
2008,08,18,10,05,22.60
2008,08,18,10,06,22.70
2008,08,18,10,07,22.70
2008,08,18,10,08,22.80
2008,08,18,10,09,22.80
2008,08,18,10,10,22.90
2008,08,18,10,11,22.90
2008,08,18,10,12,22.90
2008,08,18,10,13,22.90
2008,08,18,10,14,22.90
2008,08,18,10,15,22.90
2008,08,18,10,16,23.00
2008,08,18,10,17,23.00
2008,08,18,10,18,23.00
2008,08,18,10,19,23.00
2008,08,18,10,20,23.10
2008,08,18,10,21,23.10
2008,08,18,10,22,23.10
2008,08,18,10,23,23.10
2008,08,18,10,24,23.00
2008,08,18,10,25,23.00
2008,08,18,10,26,23.00
2008,08,18,10,27,23.00
2008,08,18,10,28,23.00
2008,08,18,10,29,22.90
2008,08,18,10,30,22.90
2008,08,18,10,31,22.90
2008,08,18,10,32,22.90
2008,08,18,10,33,22.90
2008,08,18,10,34,22.90
2008,08,18,10,35,22.90
2008,08,18,10,36,22.90
2008,08,18,10,37,22.90
2008,08,18,10,38,22.90
2008,08,18,10,39,22.80
2008,08,18,10,40,22.80
2008,08,18,10,41,22.80
2008,08,18,10,42,22.80
2008,08,18,10,43,22.80
2008,08,18,10,44,22.80
2008,08,18,10,45,22.80
2008,08,18,10,46,22.80
2008,08,18,10,47,22.80
2008,08,18,10,48,22.80
2008,08,18,10,49,22.80
2008,08,18,10,50,22.80
2008,08,18,10,51,22.80
2008,08,18,10,52,22.80
2008,08,18,10,53,22.80
2008,08,18,10,54,22.80
2008,08,18,10,55,22.80
2008,08,18,10,56,22.80
2008,08,18,10,57,22.80
2008,08,18,10,58,22.80
2008,08,18,10,59,22.80
2008,08,18,11,00,22.80
2008,08,18,11,01,22.80
2008,08,18,11,02,22.80
2008,08,18,11,03,22.80
2008,08,18,11,04,22.80
2008,08,18,11,05,22.80
2008,08,18,11,06,22.80
2008,08,18,11,07,22.80
2008,08,18,11,08,22.90
2008,08,18,11,09,22.90
2008,08,18,11,10,22.90
2008,08,18,11,11,22.90
2008,08,18,11,12,22.80
2008,08,18,11,13,22.80
2008,08,18,11,14,22.70
2008,08,18,11,15,22.60
2008,08,18,11,16,22.50
2008,08,18,11,17,22.40
2008,08,18,11,18,22.30
2008,08,18,11,19,22.30
2008,08,18,11,20,22.30
2008,08,18,11,21,22.20
2008,08,18,11,22,22.20
2008,08,18,11,23,22.10
2008,08,18,11,24,22.00
2008,08,18,11,25,21.90
2008,08,18,11,26,21.80
2008,08,18,11,27,21.70
2008,08,18,11,28,21.60
2008,08,18,11,29,21.50
2008,08,18,11,30,21.40
2008,08,18,11,31,21.40
2008,08,18,11,32,21.30
2008,08,18,11,33,21.30
2008,08,18,11,34,21.20
2008,08,18,11,35,21.20
2008,08,18,11,36,21.20
2008,08,18,11,37,21.20
2008,08,18,11,38,21.10
2008,08,18,11,39,21.10
2008,08,18,11,40,21.10
2008,08,18,11,41,21.10
2008,08,18,11,42,21.10
2008,08,18,11,43,21.00
2008,08,18,11,44,21.00
2008,08,18,11,45,20.90
2008,08,18,11,46,20.90
2008,08,18,11,47,20.90
2008,08,18,11,48,20.80
2008,08,18,11,49,20.80
2008,08,18,11,50,20.80
2008,08,18,11,51,20.80
2008,08,18,11,52,20.80
2008,08,18,11,53,20.80
2008,08,18,11,54,20.80
2008,08,18,11,55,20.80
2008,08,18,11,56,20.80
2008,08,18,11,57,20.80
2008,08,18,11,58,20.80
2008,08,18,11,59,20.80
2008,08,18,12,00,20.80
2008,08,18,12,01,20.70
2008,08,18,12,02,20.70
2008,08,18,12,03,20.70
2008,08,18,12,04,20.70
2008,08,18,12,05,20.70
2008,08,18,12,06,20.70
2008,08,18,12,07,20.70
2008,08,18,12,08,20.70
2008,08,18,12,09,20.70
2008,08,18,12,10,20.70
2008,08,18,12,11,20.80
2008,08,18,12,12,20.80
2008,08,18,12,13,20.80
2008,08,18,12,14,20.80
2008,08,18,12,15,20.80
2008,08,18,12,16,20.80
2008,08,18,12,17,20.80
2008,08,18,12,18,20.80
2008,08,18,12,19,20.80
2008,08,18,12,20,20.80
2008,08,18,12,21,20.80
2008,08,18,12,22,20.90
2008,08,18,12,23,20.90
2008,08,18,12,24,20.90
2008,08,18,12,25,20.90
2008,08,18,12,26,20.90
2008,08,18,12,27,20.90
2008,08,18,12,28,21.00
2008,08,18,12,29,21.00
2008,08,18,12,30,21.00
2008,08,18,12,31,21.10
2008,08,18,12,32,21.10
2008,08,18,12,33,21.10
2008,08,18,12,34,21.20
2008,08,18,12,35,21.20
2008,08,18,12,36,21.20
2008,08,18,12,37,21.20
2008,08,18,12,38,21.20
2008,08,18,12,39,21.20
2008,08,18,12,40,21.20
2008,08,18,12,41,21.20
2008,08,18,12,42,21.20
2008,08,18,12,43,21.20
2008,08,18,12,44,21.20
2008,08,18,12,45,21.10
2008,08,18,12,46,21.10
2008,08,18,12,47,21.00
2008,08,18,12,48,20.90
2008,08,18,12,49,20.80
2008,08,18,12,50,20.80
2008,08,18,12,51,20.70
2008,08,18,12,52,20.60
2008,08,18,12,53,20.40
2008,08,18,12,54,20.20
2008,08,18,12,55,20.00
2008,08,18,12,56,19.90
2008,08,18,12,57,19.70
2008,08,18,12,58,19.60
2008,08,18,12,59,19.40
2008,08,18,13,00,19.30
2008,08,18,13,01,19.20
2008,08,18,13,02,19.10
2008,08,18,13,03,19.10
2008,08,18,13,04,19.00
2008,08,18,13,05,18.90
2008,08,18,13,06,18.80
2008,08,18,13,07,18.70
2008,08,18,13,08,18.70
2008,08,18,13,09,18.70
2008,08,18,13,10,18.70
2008,08,18,13,11,18.70
2008,08,18,13,12,18.60
2008,08,18,13,13,18.60
2008,08,18,13,14,18.60
2008,08,18,13,15,18.60
2008,08,18,13,16,18.60
2008,08,18,13,17,18.60
2008,08,18,13,18,18.70
2008,08,18,13,19,18.70
2008,08,18,13,20,18.80
2008,08,18,13,21,18.80
2008,08,18,13,22,18.90
2008,08,18,13,23,18.90
2008,08,18,13,24,18.90
2008,08,18,13,25,19.00
2008,08,18,13,26,19.10
2008,08,18,13,27,19.10
2008,08,18,13,28,19.20
2008,08,18,13,29,19.20
2008,08,18,13,30,19.20
2008,08,18,13,31,19.30
2008,08,18,13,32,19.30
2008,08,18,13,33,19.30
2008,08,18,13,34,19.30
2008,08,18,13,35,19.30
2008,08,18,13,36,19.30
2008,08,18,13,37,19.20
2008,08,18,13,38,19.20
2008,08,18,13,39,19.20
2008,08,18,13,40,19.10
2008,08,18,13,41,19.10
2008,08,18,13,42,19.10
2008,08,18,13,43,19.10
2008,08,18,13,44,19.10
2008,08,18,13,45,19.10
2008,08,18,13,46,19.10
2008,08,18,13,47,19.10
2008,08,18,13,48,19.10
2008,08,18,13,49,19.10
2008,08,18,13,50,19.10
2008,08,18,13,51,19.10
2008,08,18,13,52,19.10
2008,08,18,13,53,19.10
2008,08,18,13,54,19.10
2008,08,18,13,55,19.10
2008,08,18,13,56,19.10
2008,08,18,13,57,19.00
2008,08,18,13,58,18.90
2008,08,18,13,59,18.90
2008,08,18,14,00,18.90
2008,08,18,14,01,18.90
2008,08,18,14,02,18.90
2008,08,18,14,03,18.90
2008,08,18,14,04,18.90
2008,08,18,14,05,18.90
2008,08,18,14,06,18.90
2008,08,18,14,07,18.90
2008,08,18,14,08,18.90
2008,08,18,14,09,18.90
2008,08,18,14,10,19.00
2008,08,18,14,11,19.00
2008,08,18,14,12,19.10
2008,08,18,14,13,19.10
2008,08,18,14,14,19.20
2008,08,18,14,15,19.20
2008,08,18,14,16,19.20
2008,08,18,14,17,19.30
2008,08,18,14,18,19.30
2008,08,18,14,19,19.30
2008,08,18,14,20,19.40
2008,08,18,14,21,19.40
2008,08,18,14,22,19.40
2008,08,18,14,23,19.40
2008,08,18,14,24,19.40
2008,08,18,14,25,19.40
2008,08,18,14,26,19.40
2008,08,18,14,27,19.40
2008,08,18,14,28,19.40
2008,08,18,14,29,19.30
2008,08,18,14,30,19.30
2008,08,18,14,31,19.20
2008,08,18,14,32,19.20
2008,08,18,14,33,19.20
2008,08,18,14,34,19.20
2008,08,18,14,35,19.20
2008,08,18,14,36,19.20
2008,08,18,14,37,19.20
2008,08,18,14,38,19.20
2008,08,18,14,39,19.20
2008,08,18,14,40,19.10
2008,08,18,14,41,19.10
2008,08,18,14,42,19.10
2008,08,18,14,43,19.10
2008,08,18,14,44,19.20
2008,08,18,14,45,19.20
2008,08,18,14,46,19.20
2008,08,18,14,47,19.20
2008,08,18,14,48,19.20
2008,08,18,14,49,19.20
2008,08,18,14,50,19.20
2008,08,18,14,51,19.30
2008,08,18,14,52,19.30
2008,08,18,14,53,19.30
2008,08,18,14,54,19.40
2008,08,18,14,55,19.40
2008,08,18,14,56,19.50
2008,08,18,14,57,19.50
2008,08,18,14,58,19.60
2008,08,18,14,59,19.60
2008,08,18,15,00,19.70
2008,08,18,15,01,19.70
2008,08,18,15,02,19.80
2008,08,18,15,03,19.80
2008,08,18,15,04,19.80
2008,08,18,15,05,19.80
2008,08,18,15,06,19.90
2008,08,18,15,07,19.90
2008,08,18,15,08,19.90
2008,08,18,15,09,20.00
2008,08,18,15,10,20.00
2008,08,18,15,11,20.10
2008,08,18,15,12,20.20
2008,08,18,15,13,20.20
2008,08,18,15,14,20.20
2008,08,18,15,15,20.30
2008,08,18,15,16,20.40
2008,08,18,15,17,20.40
2008,08,18,15,18,20.50
2008,08,18,15,19,20.50
2008,08,18,15,20,20.60
2008,08,18,15,21,20.60
2008,08,18,15,22,20.60
2008,08,18,15,23,20.60
2008,08,18,15,24,20.60
2008,08,18,15,25,20.60
2008,08,18,15,26,20.70
2008,08,18,15,27,20.70
2008,08,18,15,28,20.80
2008,08,18,15,29,20.80
2008,08,18,15,30,20.90
2008,08,18,15,31,20.90
2008,08,18,15,32,21.00
2008,08,18,15,33,21.00
2008,08,18,15,34,20.90
2008,08,18,15,35,20.80
2008,08,18,15,36,20.70
2008,08,18,15,37,20.60
2008,08,18,15,38,20.60
2008,08,18,15,39,20.60
2008,08,18,15,40,20.60
2008,08,18,15,41,20.50
2008,08,18,15,42,20.50
2008,08,18,15,43,20.50
2008,08,18,15,44,20.50
2008,08,18,15,45,20.60
2008,08,18,15,46,20.60
2008,08,18,15,47,20.60
2008,08,18,15,48,20.70
2008,08,18,15,49,20.70
2008,08,18,15,50,20.80
2008,08,18,15,51,20.80
2008,08,18,15,52,20.80
2008,08,18,15,53,20.80
2008,08,18,15,54,20.90
2008,08,18,15,55,20.90
2008,08,18,15,56,20.90
2008,08,18,15,57,20.90
2008,08,18,15,58,20.90
2008,08,18,15,59,20.90
2008,08,18,16,00,20.90
2008,08,18,16,01,21.00
2008,08,18,16,02,21.10
2008,08,18,16,03,21.10
2008,08,18,16,04,21.10
2008,08,18,16,05,21.20
2008,08,18,16,06,21.20
2008,08,18,16,07,21.20
2008,08,18,16,08,21.30
2008,08,18,16,09,21.30
2008,08,18,16,10,21.30
2008,08,18,16,11,21.30
2008,08,18,16,12,21.30
2008,08,18,16,13,21.20
2008,08,18,16,14,21.20
2008,08,18,16,15,21.10
2008,08,18,16,16,21.10
2008,08,18,16,17,21.10
2008,08,18,16,18,21.10
2008,08,18,16,19,21.10
2008,08,18,16,20,21.00
2008,08,18,16,21,21.00
2008,08,18,16,22,21.00
2008,08,18,16,23,21.00
2008,08,18,16,24,21.00
2008,08,18,16,25,21.00
2008,08,18,16,26,20.80
2008,08,18,16,27,20.80
2008,08,18,16,28,20.80
2008,08,18,16,29,20.80
2008,08,18,16,30,20.80
2008,08,18,16,31,20.80
2008,08,18,16,32,20.80
2008,08,18,16,33,20.70
2008,08,18,16,34,20.70
2008,08,18,16,35,20.70
2008,08,18,16,36,20.60
2008,08,18,16,37,20.50
2008,08,18,16,38,20.50
2008,08,18,16,39,20.50
2008,08,18,16,40,20.40
2008,08,18,16,41,20.40
2008,08,18,16,42,20.40
2008,08,18,16,43,20.40
2008,08,18,16,44,20.40
2008,08,18,16,45,20.40
2008,08,18,16,46,20.30
2008,08,18,16,47,20.30
2008,08,18,16,48,20.30
2008,08,18,16,49,20.30
2008,08,18,16,50,20.30
2008,08,18,16,51,20.30
2008,08,18,16,52,20.30
2008,08,18,16,53,20.30
2008,08,18,16,54,20.30
2008,08,18,16,55,20.30
2008,08,18,16,56,20.30
2008,08,18,16,57,20.30
2008,08,18,16,58,20.20
2008,08,18,16,59,20.10
2008,08,18,17,00,20.10
2008,08,18,17,01,20.10
2008,08,18,17,02,20.00
2008,08,18,17,03,20.00
2008,08,18,17,04,19.90
2008,08,18,17,05,19.90
2008,08,18,17,06,19.90
2008,08,18,17,07,19.90
2008,08,18,17,08,19.80
2008,08,18,17,09,19.80
2008,08,18,17,10,19.70
2008,08,18,17,11,19.70
2008,08,18,17,12,19.70
2008,08,18,17,13,19.60
2008,08,18,17,14,19.60
2008,08,18,17,15,19.50
2008,08,18,17,16,19.40
2008,08,18,17,17,19.40
2008,08,18,17,18,19.40
2008,08,18,17,19,19.30